When you browse on this site, cookies collect data to enhance your experience and personalize the content and advertising you see.
Visit our Privacy Policy to learn more. By continuing to use the site, you agree to this use of cookies and data.
  • In Hungary
  • List of Countries
  • For 7 days
  • Water Temperature
  • Weather Map
  • News
  • Weather Widgets
  • user-avatar
    Login

    Hourly Weather Vereya

    Today, 9 April, Thursday

    Time Temperature Precipitation Wind Pressure Humidity
    00:00 +5°C° 0 mm 2 mps 751 mmHg 87%
    01:00 +5°C° 0 mm 2 mps 751 mmHg 89%
    02:00 +4°C° 0 mm 2 mps 751 mmHg 91%
    03:00 +4°C° 0 mm 2 mps 751 mmHg 94%
    04:00 +4°C° 0 mm 2 mps 752 mmHg 93%
    05:00 +4°C° 0 mm 2 mps 752 mmHg 93%
    06:00 +3°C° 0 mm 2 mps 752 mmHg 92%
    07:00 +6°C° 0 mm 1 mps 752 mmHg 86%
    08:00 +7°C° 0 mm 1 mps 752 mmHg 79%
    09:00 +8°C° 0 mm 1 mps 752 mmHg 73%
    10:00 +8°C° 0 mm 2 mps 751 mmHg 68%
    11:00 +9°C° 0 mm 2 mps 751 mmHg 63%
    12:00 +11°C° 0 mm 3 mps 750 mmHg 58%
    13:00 +11°C° 0 mm 3 mps 750 mmHg 53%
    14:00 +12°C° 0 mm 3 mps 749 mmHg 49%
    15:00 +13°C° 0 mm 3 mps 749 mmHg 44%
    16:00 +12°C° 0 mm 3 mps 749 mmHg 48%
    17:00 +12°C° 0 mm 3 mps 748 mmHg 52%
    18:00 +11°C° 0 mm 3 mps 748 mmHg 55%
    19:00 +10°C° 0 mm 3 mps 747 mmHg 60%
    20:00 +9°C° 0 mm 3 mps 747 mmHg 65%
    21:00 +8°C° 0 mm 3 mps 746 mmHg 70%
    22:00 +8°C° 0 mm 3 mps 746 mmHg 71%
    23:00 +8°C° 0 mm 3 mps 745 mmHg 72%

    Tomorrow, 10 April, Friday

    Time Temperature Precipitation Wind Pressure Humidity
    00:00 +7°C° 0 mm 4 mps 745 mmHg 74%
    01:00 +7°C° 0 mm 4 mps 744 mmHg 75%
    02:00 +7°C° 0 mm 4 mps 743 mmHg 77%
    03:00 +6°C° 0 mm 4 mps 743 mmHg 78%
    04:00 +6°C° 0.4 mm 4 mps 742 mmHg 80%
    05:00 +6°C° 0.4 mm 4 mps 742 mmHg 82%
    06:00 +6°C° 0.4 mm 4 mps 742 mmHg 85%
    07:00 +6°C° 0.9 mm 4 mps 742 mmHg 86%
    08:00 +8°C° 0.9 mm 3 mps 742 mmHg 87%
    09:00 +8°C° 0.9 mm 3 mps 742 mmHg 88%
    10:00 +8°C° 0.1 mm 3 mps 742 mmHg 82%
    11:00 +7°C° 0.1 mm 4 mps 742 mmHg 76%
    12:00 +7°C° 0.1 mm 4 mps 743 mmHg 71%
    13:00 +7°C° 0 mm 4 mps 743 mmHg 67%
    14:00 +7°C° 0 mm 4 mps 743 mmHg 64%
    15:00 +7°C° 0 mm 4 mps 744 mmHg 61%
    16:00 +8°C° 0 mm 3 mps 744 mmHg 59%
    17:00 +8°C° 0 mm 3 mps 744 mmHg 58%
    18:00 +8°C° 0 mm 3 mps 744 mmHg 56%
    19:00 +6°C° 0 mm 2 mps 745 mmHg 63%
    20:00 +5°C° 0 mm 2 mps 745 mmHg 69%
    21:00 +4°C° 0 mm 2 mps 745 mmHg 75%
    22:00 +3°C° 0 mm 2 mps 745 mmHg 77%
    23:00 +3°C° 0 mm 2 mps 746 mmHg 80%

    Day after tomorrow, 11 April, Saturday

    Time Temperature Precipitation Wind Pressure Humidity
    00:00 +3°C° 0 mm 1 mps 746 mmHg 82%
    01:00 +2°C° 0 mm 2 mps 746 mmHg 85%
    02:00 +1°C° 0 mm 2 mps 746 mmHg 88%
    03:00 +1°C° 0 mm 2 mps 746 mmHg 90%
    04:00 +1°C° 0 mm 2 mps 747 mmHg 92%
    05:00 +1°C° 0 mm 2 mps 747 mmHg 93%
    06:00 +1°C° 0 mm 2 mps 747 mmHg 95%
    07:00 +1°C° 0.1 mm 2 mps 747 mmHg 91%
    08:00 +1°C° 0.1 mm 3 mps 747 mmHg 87%
    09:00 +1°C° 0.1 mm 3 mps 747 mmHg 84%
    10:00 +3°C° 0.1 mm 2 mps 747 mmHg 78%
    11:00 +4°C° 0.1 mm 2 mps 747 mmHg 72%
    12:00 +5°C° 0.1 mm 2 mps 747 mmHg 66%
    13:00 +5°C° 0.2 mm 2 mps 747 mmHg 62%
    14:00 +6°C° 0.2 mm 2 mps 747 mmHg 58%
    15:00 +6°C° 0.2 mm 2 mps 747 mmHg 55%
    16:00 +4°C° 0.4 mm 3 mps 747 mmHg 61%
    17:00 +3°C° 0.4 mm 4 mps 747 mmHg 68%
    18:00 +1°C° 0.4 mm 5 mps 747 mmHg 74%
    19:00 0°C° 0.1 mm 5 mps 748 mmHg 71%
    20:00 0°C° 0.1 mm 4 mps 748 mmHg 67%
    21:00 -1°C° 0.1 mm 4 mps 749 mmHg 64%
    22:00 -2°C° 0 mm 4 mps 749 mmHg 65%
    23:00 -2°C° 0 mm 4 mps 750 mmHg 65%

    12 April, Sunday

    Time Temperature Precipitation Wind Pressure Humidity
    00:00 -2°C° 0 mm 3 mps 750 mmHg 66%
    01:00 -2°C° 0 mm 3 mps 750 mmHg 65%
    02:00 -3°C° 0 mm 4 mps 750 mmHg 65%
    03:00 -4°C° 0 mm 4 mps 751 mmHg 65%
    04:00 -4°C° 0 mm 3 mps 751 mmHg 64%
    05:00 -2°C° 0 mm 3 mps 751 mmHg 62%
    06:00 -2°C° 0 mm 3 mps 751 mmHg 61%
    07:00 -1°C° 0 mm 3 mps 752 mmHg 57%
    08:00 -1°C° 0 mm 4 mps 752 mmHg 53%
    09:00 0°C° 0 mm 4 mps 752 mmHg 49%
    10:00 +1°C° 0.1 mm 5 mps 752 mmHg 45%
    11:00 +1°C° 0.1 mm 5 mps 752 mmHg 41%
    12:00 +2°C° 0.1 mm 6 mps 752 mmHg 36%
    13:00 +2°C° 0 mm 6 mps 752 mmHg 34%
    14:00 +3°C° 0 mm 6 mps 752 mmHg 32%
    15:00 +3°C° 0 mm 5 mps 752 mmHg 30%
    16:00 +2°C° 0 mm 5 mps 752 mmHg 33%
    17:00 +3°C° 0 mm 4 mps 752 mmHg 36%
    18:00 +3°C° 0 mm 3 mps 752 mmHg 39%
    19:00 +2°C° 0 mm 2 mps 752 mmHg 45%
    20:00 +1°C° 0 mm 2 mps 752 mmHg 51%
    21:00 +1°C° 0 mm 1 mps 753 mmHg 56%
    22:00 0°C° 0 mm 1 mps 752 mmHg 57%
    23:00 0°C° 0 mm 1 mps 752 mmHg 58%

    13 April, Monday

    Time Temperature Precipitation Wind Pressure Humidity
    00:00 0°C° 0 mm 1 mps 752 mmHg 59%
    01:00 -2°C° 0 mm 2 mps 751 mmHg 61%
    02:00 -2°C° 0 mm 2 mps 751 mmHg 62%
    03:00 -2°C° 0 mm 2 mps 751 mmHg 63%
    04:00 -1°C° 0 mm 2 mps 750 mmHg 63%
    05:00 0°C° 0 mm 3 mps 749 mmHg 63%
    06:00 0°C° 0 mm 3 mps 749 mmHg 63%
    07:00 +1°C° 0 mm 4 mps 748 mmHg 62%
    08:00 +2°C° 0 mm 5 mps 748 mmHg 61%
    09:00 +4°C° 0 mm 6 mps 747 mmHg 59%
    10:00 +5°C° 0 mm 6 mps 746 mmHg 55%
    11:00 +7°C° 0 mm 6 mps 746 mmHg 51%
    12:00 +8°C° 0 mm 6 mps 745 mmHg 47%
    13:00 +9°C° 0 mm 6 mps 745 mmHg 46%
    14:00 +9°C° 0 mm 6 mps 745 mmHg 46%
    15:00 +10°C° 0 mm 6 mps 744 mmHg 45%
    16:00 +9°C° 0 mm 5 mps 743 mmHg 48%
    17:00 +10°C° 0 mm 4 mps 743 mmHg 51%
    18:00 +10°C° 0 mm 4 mps 742 mmHg 54%
    19:00 +8°C° 0 mm 4 mps 742 mmHg 57%
    20:00 +8°C° 0 mm 4 mps 741 mmHg 60%
    21:00 +7°C° 0 mm 5 mps 741 mmHg 63%
    22:00 +8°C° 0 mm 5 mps 740 mmHg 64%
    23:00 +8°C° 0 mm 5 mps 739 mmHg 65%

    14 April, Tuesday

    Time Temperature Precipitation Wind Pressure Humidity
    00:00 +8°C° 0 mm 6 mps 739 mmHg 67%
    01:00 +8°C° 0 mm 6 mps 738 mmHg 66%
    02:00 +7°C° 0 mm 6 mps 737 mmHg 66%
    03:00 +6°C° 0 mm 7 mps 736 mmHg 66%
    04:00 +6°C° 0 mm 7 mps 736 mmHg 66%
    05:00 +6°C° 0 mm 7 mps 735 mmHg 66%
    06:00 +6°C° 0 mm 7 mps 735 mmHg 66%
    07:00 +6°C° 0 mm 7 mps 734 mmHg 64%
    08:00 +6°C° 0 mm 7 mps 734 mmHg 62%
    09:00 +7°C° 0 mm 8 mps 734 mmHg 60%
    10:00 +7°C° 0.5 mm 8 mps 734 mmHg 66%
    11:00 +6°C° 0.5 mm 8 mps 734 mmHg 71%
    12:00 +6°C° 0.5 mm 8 mps 735 mmHg 77%
    13:00 +5°C° 1.1 mm 7 mps 735 mmHg 82%
    14:00 +3°C° 1.1 mm 6 mps 735 mmHg 87%
    15:00 +2°C° 1.1 mm 5 mps 735 mmHg 92%
    16:00 +1°C° 1.5 mm 5 mps 735 mmHg 93%
    17:00 -1°C° 1.5 mm 5 mps 735 mmHg 94%
    18:00 -2°C° 1.5 mm 5 mps 735 mmHg 95%
    19:00 -2°C° 1.3 mm 5 mps 735 mmHg 95%
    20:00 -3°C° 1.3 mm 6 mps 735 mmHg 95%
    21:00 -4°C° 1.3 mm 6 mps 735 mmHg 95%
    22:00 -4°C° 1.4 mm 6 mps 735 mmHg 95%
    23:00 -4°C° 1.4 mm 6 mps 735 mmHg 95%
    Show more